This is the latest recevied weather packets stored in our database for station/object XE2OR-10. If no packets are shown the sender has not sent any weather packets the latest 10 day(s).
| Time | Temp. | Humidity | Pressure | Rain* | Wind** | Luminosity | Snow |
|---|---|---|---|---|---|---|---|
| 1777739328 | 19.44° C | 65% | 1027.3 hPa | 0 mm | - | 832 W/m² | - |
| 1777739033 | 19.44° C | 66% | 1027.3 hPa | 0 mm | - | 842 W/m² | - |
| 1777738729 | 19.44° C | 67% | 1027.1 hPa | 0 mm | - | 822 W/m² | - |
| 1777738433 | 19.44° C | 67% | 1027.2 hPa | 0 mm | - | 835 W/m² | - |
| 1777738129 | 19.44° C | 69% | 1027.5 hPa | 0 mm | - | 808 W/m² | - |
| 1777737828 | 19.44° C | 69% | 1027.3 hPa | 0 mm | - | 788 W/m² | - |
| 1777737529 | 18.89° C | 70% | 1027.2 hPa | 0 mm | - | 717 W/m² | - |
| 1777737233 | 18.89° C | 69% | 1027.2 hPa | 0 mm | - | 703 W/m² | - |
| 1777736929 | 18.33° C | 70% | 1027.2 hPa | 0 mm | - | 756 W/m² | - |
| 1777736633 | 18.89° C | 70% | 1027.1 hPa | 0 mm | - | 758 W/m² | - |
| 1777736329 | 18.33° C | 69% | 1027.3 hPa | 0 mm | - | 732 W/m² | - |
| 1777736029 | 18.33° C | 70% | 1027.3 hPa | 0 mm | - | 723 W/m² | - |
| 1777735729 | 18.33° C | 71% | 1027.2 hPa | 0 mm | - | 682 W/m² | - |
| 1777735432 | 17.78° C | 72% | 1027.1 hPa | 0 mm | - | 582 W/m² | - |
| 1777735129 | 17.78° C | 72% | 1027.2 hPa | 0 mm | - | 567 W/m² | - |
| 1777734832 | 17.78° C | 73% | 1027.1 hPa | 0 mm | - | 602 W/m² | - |
| 1777734529 | 17.78° C | 72% | 1027.1 hPa | 0 mm | - | 594 W/m² | - |
| 1777734229 | 18.33° C | 72% | 1027.1 hPa | 0 mm | - | 583 W/m² | - |
| 1777733929 | 17.78° C | 73% | 1027 hPa | 0 mm | - | 564 W/m² | - |
| 1777733632 | 18.33° C | 73% | 1026.7 hPa | 0 mm | - | 509 W/m² | - |
| 1777733329 | 17.22° C | 74% | 1026.8 hPa | 0 mm | - | 412 W/m² | - |
| 1777733032 | 17.78° C | 74% | 1026.7 hPa | 0 mm | - | 378 W/m² | - |
| 1777732728 | 17.78° C | 75% | 1026.8 hPa | 0 mm | - | 392 W/m² | - |
| 1777732429 | 17.22° C | 75% | 1026.6 hPa | 0 mm | - | 333 W/m² | - |
| 1777732128 | 16.67° C | 75% | 1026.7 hPa | 0 mm | - | 323 W/m² | - |
* Rain latest hour (hover to see other rain measurements)
** Current wind speed in m/s (hover to see current wind gust speed)